| time (UTC) | temp F | wind direction | speed knots | gust knots | rain 1hr in | rain 24hr in | rain mn in | humidity % | barometer mb |
| 20260504013535 | 72 | 37 | 0.9 | 0.9 | 0.00 | 0.00 | 0.00 | 51 | 1011.2 |
| 20260504013032 | 72 | 29 | 0.9 | 0.9 | 0.00 | 0.00 | 0.00 | 50 | 1011.1 |
| 20260504012529 | 73 | 100 | 1.7 | 2.6 | 0.00 | 0.00 | 0.00 | 49 | 1011.0 |
| 20260504012027 | 73 | 63 | 1.7 | 1.7 | 0.00 | 0.00 | 0.00 | 48 | 1011.1 |
| 20260504011523 | 74 | 54 | 0.9 | 1.7 | 0.00 | 0.00 | 0.00 | 47 | 1011.1 |
| 20260504011020 | 74 | 45 | 1.7 | 1.7 | 0.00 | 0.00 | 0.00 | 46 | 1011.0 |
| 20260504010515 | 74 | 173 | 0.9 | 1.7 | 0.00 | 0.00 | 0.00 | 45 | 1010.9 |
| 20260504010011 | 75 | 47 | 1.7 | 1.7 | 0.00 | 0.00 | 0.00 | 45 | 1011.1 |
| 20260504005508 | 75 | 46 | 0.9 | 1.7 | 0.00 | 0.00 | 0.00 | 45 | 1011.0 |
| 20260504005006 | 75 | 179 | 1.7 | 2.6 | 0.00 | 0.00 | 0.00 | 44 | 1011.1 |
| 20260504004503 | 75 | 66 | 0.9 | 1.7 | 0.00 | 0.00 | 0.00 | 45 | 1011.1 |
| 20260504004000 | 76 | 210 | 0.0 | 0.9 | 0.00 | 0.00 | 0.00 | 44 | 1011.1 |
| 20260504003456 | 76 | 219 | 2.6 | 2.6 | 0.00 | 0.00 | 0.00 | 44 | 1011.1 |
| 20260504002953 | 76 | 84 | 1.7 | 1.7 | 0.00 | 0.00 | 0.00 | 44 | 1011.2 |
| 20260504002450 | 76 | 78 | 1.7 | 2.6 | 0.00 | 0.00 | 0.00 | 43 | 1011.2 |
| 20260504001948 | 77 | 161 | 3.5 | 3.5 | 0.00 | 0.00 | 0.00 | 43 | 1011.3 |
| 20260504001445 | 77 | 229 | 1.7 | 1.7 | 0.00 | 0.00 | 0.00 | 43 | 1011.2 |
| 20260504000942 | 77 | 155 | 1.7 | 2.6 | 0.00 | 0.00 | 0.00 | 42 | 1011.3 |
| 20260504000439 | 77 | 135 | 1.7 | 1.7 | 0.00 | 0.00 | 0.00 | 42 | 1011.5 |
| 20260503235936 | 77 | 172 | 2.6 | 3.5 | 0.00 | 0.00 | 0.00 | 41 | 1011.3 |
| 20260503235433 | 77 | 169 | 3.5 | 5.2 | 0.00 | 0.00 | 0.00 | 41 | 1011.5 |
| 20260503234931 | 78 | 200 | 4.3 | 5.2 | 0.00 | 0.00 | 0.00 | 40 | 1011.5 |
| 20260503234428 | 78 | 145 | 6.1 | 9.6 | 0.00 | 0.00 | 0.00 | 40 | 1011.6 |
| 20260503233926 | 78 | 222 | 4.3 | 7.0 | 0.00 | 0.00 | 0.00 | 40 | 1011.7 |
| 20260503233422 | 78 | 76 | 3.5 | 5.2 | 0.00 | 0.00 | 0.00 | 40 | 1011.7 |
| 20260503232919 | 79 | 237 | 5.2 | 6.1 | 0.00 | 0.00 | 0.00 | 40 | 1011.8 |
| 20260503232416 | 79 | 217 | 3.5 | 3.5 | 0.00 | 0.00 | 0.00 | 39 | 1011.6 |
| 20260503231914 | 79 | 192 | 3.5 | 5.2 | 0.00 | 0.00 | 0.00 | 39 | 1011.8 |
| 20260503231411 | 80 | 165 | 5.2 | 7.0 | 0.00 | 0.00 | 0.00 | 38 | 1011.8 |
| 20260503230907 | 80 | 168 | 3.5 | 6.1 | 0.00 | 0.00 | 0.00 | 38 | 1011.9 |
| 20260503230404 | 80 | 250 | 4.3 | 6.1 | 0.00 | 0.00 | 0.00 | 38 | 1011.8 |
| 20260503225901 | 79 | 330 | 0.9 | 1.7 | 0.00 | 0.00 | 0.00 | 38 | 1012.0 |
| 20260503225357 | 80 | 182 | 6.1 | 7.8 | 0.00 | 0.00 | 0.00 | 37 | 1011.9 |
| 20260503224854 | 80 | 217 | 7.0 | 7.8 | 0.00 | 0.00 | 0.00 | 37 | 1012.1 |
| 20260503224351 | 80 | 220 | 7.0 | 8.7 | 0.00 | 0.00 | 0.00 | 36 | 1011.9 |
| 20260503223849 | 80 | 207 | 2.6 | 3.5 | 0.00 | 0.00 | 0.00 | 37 | 1012.1 |
| 20260503223347 | 80 | 323 | 1.7 | 2.6 | 0.00 | 0.00 | 0.00 | 37 | 1012.0 |
| 20260503222842 | 80 | 232 | 3.5 | 6.1 | 0.00 | 0.00 | 0.00 | 37 | 1012.0 |
| 20260503222340 | 80 | 203 | 7.0 | 11.3 | 0.00 | 0.00 | 0.00 | 36 | 1012.1 |
| 20260503221838 | 80 | 146 | 1.7 | 1.7 | 0.00 | 0.00 | 0.00 | 37 | 1012.2 |
| 20260503221337 | 80 | 31 | 1.7 | 2.6 | 0.00 | 0.00 | 0.00 | 35 | 1012.2 |
| 20260503220832 | 80 | 176 | 1.7 | 2.6 | 0.00 | 0.00 | 0.00 | 35 | 1012.3 |
| 20260503220329 | 81 | 218 | 7.8 | 9.6 | 0.00 | 0.00 | 0.00 | 34 | 1012.3 |
| 20260503215826 | 82 | 27 | 1.7 | 2.6 | 0.00 | 0.00 | 0.00 | 36 | 1012.4 |
| 20260503215323 | 82 | 216 | 7.8 | 13.9 | 0.00 | 0.00 | 0.00 | 34 | 1012.5 |
| 20260503214821 | 82 | 13 | 2.6 | 2.6 | 0.00 | 0.00 | 0.00 | 34 | 1012.5 |
| 20260503214318 | 82 | 241 | 4.3 | 6.1 | 0.00 | 0.00 | 0.00 | 34 | 1012.5 |
| 20260503213815 | 82 | 221 | 6.1 | 7.8 | 0.00 | 0.00 | 0.00 | 34 | 1012.5 |
| 20260503213313 | 82 | 170 | 1.7 | 2.6 | 0.00 | 0.00 | 0.00 | 34 | 1012.7 |
| 20260503212810 | 81 | 228 | 6.1 | 8.7 | 0.00 | 0.00 | 0.00 | 34 | 1012.9 |
| 20260503212308 | 81 | 230 | 1.7 | 3.5 | 0.00 | 0.00 | 0.00 | 34 | 1013.0 |
| 20260503211805 | 81 | 233 | 3.5 | 5.2 | 0.00 | 0.00 | 0.00 | 34 | 1012.8 |
| 20260503211301 | 82 | 310 | 8.7 | 13.0 | 0.00 | 0.00 | 0.00 | 33 | 1013.0 |
| 20260503210801 | 82 | 263 | 4.3 | 6.1 | 0.00 | 0.00 | 0.00 | 35 | 1013.2 |
| 20260503210259 | 82 | 280 | 6.1 | 9.6 | 0.00 | 0.00 | 0.00 | 34 | 1013.2 |
| 20260503205754 | 82 | 327 | 2.6 | 2.6 | 0.00 | 0.00 | 0.00 | 37 | 1013.6 |
| 20260503205251 | 82 | 228 | 3.5 | 5.2 | 0.00 | 0.00 | 0.00 | 36 | 1013.5 |
| 20260503204747 | 82 | 204 | 2.6 | 3.5 | 0.00 | 0.00 | 0.00 | 35 | 1013.5 |
| 20260503204245 | 81 | 279 | 2.6 | 3.5 | 0.00 | 0.00 | 0.00 | 37 | 1013.5 |
| 20260503203742 | 81 | 212 | 6.1 | 12.2 | 0.00 | 0.00 | 0.00 | 37 | 1013.5 |
| 20260503203239 | 81 | 358 | 3.5 | 6.1 | 0.00 | 0.00 | 0.00 | 36 | 1013.6 |
| 20260503202736 | 82 | 211 | 5.2 | 7.0 | 0.00 | 0.00 | 0.00 | 34 | 1013.8 |
| 20260503202234 | 81 | 225 | 3.5 | 6.1 | 0.00 | 0.00 | 0.00 | 36 | 1013.8 |
| 20260503201732 | 81 | 193 | 4.3 | 6.1 | 0.00 | 0.00 | 0.00 | 37 | 1014.0 |
| 20260503201229 | 80 | 270 | 1.7 | 3.5 | 0.00 | 0.00 | 0.00 | 35 | 1013.9 |
| 20260503200726 | 80 | 219 | 7.0 | 7.8 | 0.00 | 0.00 | 0.00 | 37 | 1014.0 |
| 20260503200222 | 80 | 238 | 7.8 | 9.6 | 0.00 | 0.00 | 0.00 | 36 | 1014.2 |
| 20260503195719 | 81 | 189 | 3.5 | 5.2 | 0.00 | 0.00 | 0.00 | 36 | 1014.2 |
| 20260503195216 | 81 | 14 | 1.7 | 2.6 | 0.00 | 0.00 | 0.00 | 37 | 1014.2 |
| 20260503194713 | 80 | 281 | 1.7 | 2.6 | 0.00 | 0.00 | 0.00 | 38 | 1014.5 |
| 20260503194209 | 80 | 3 | 1.7 | 3.5 | 0.00 | 0.00 | 0.00 | 39 | 1014.2 |
| 20260503193705 | 81 | 234 | 7.8 | 9.6 | 0.00 | 0.00 | 0.00 | 35 | 1014.5 |
| 20260503193201 | 80 | 275 | 3.5 | 3.5 | 0.00 | 0.00 | 0.00 | 38 | 1014.8 |
| 20260503192657 | 79 | 220 | 10.4 | 12.2 | 0.00 | 0.00 | 0.00 | 37 | 1014.6 |
| 20260503192152 | 80 | 201 | 5.2 | 7.0 | 0.00 | 0.00 | 0.00 | 37 | 1014.7 |
| 20260503191649 | 80 | 234 | 5.2 | 6.1 | 0.00 | 0.00 | 0.00 | 37 | 1014.9 |
| 20260503191147 | 79 | 209 | 2.6 | 6.1 | 0.00 | 0.00 | 0.00 | 38 | 1014.7 |
| 20260503190643 | 79 | 202 | 4.3 | 7.0 | 0.00 | 0.00 | 0.00 | 37 | 1015.0 |
| 20260503190140 | 79 | 201 | 4.3 | 7.0 | 0.00 | 0.00 | 0.00 | 37 | 1015.0 |
| 20260503185637 | 79 | 239 | 2.6 | 5.2 | 0.00 | 0.00 | 0.00 | 39 | 1015.1 |
| 20260503185132 | 79 | 320 | 4.3 | 6.1 | 0.00 | 0.00 | 0.00 | 38 | 1015.0 |
| 20260503184627 | 78 | 292 | 3.5 | 3.5 | 0.00 | 0.00 | 0.00 | 38 | 1015.2 |
| 20260503184124 | 79 | 208 | 4.3 | 6.1 | 0.00 | 0.00 | 0.00 | 38 | 1015.3 |
| 20260503183620 | 79 | 220 | 3.5 | 3.5 | 0.00 | 0.00 | 0.00 | 38 | 1015.4 |
| 20260503183118 | 78 | 295 | 1.7 | 2.6 | 0.00 | 0.00 | 0.00 | 41 | 1015.2 |
| 20260503182616 | 77 | 218 | 5.2 | 9.6 | 0.00 | 0.00 | 0.00 | 38 | 1015.3 |
| 20260503182114 | 78 | 217 | 7.0 | 8.7 | 0.00 | 0.00 | 0.00 | 38 | 1015.6 |
| 20260503181610 | 78 | 236 | 3.5 | 7.0 | 0.00 | 0.00 | 0.00 | 38 | 1015.7 |
| 20260503181107 | 78 | 86 | 2.6 | 3.5 | 0.00 | 0.00 | 0.00 | 39 | 1015.6 |
| 20260503180605 | 77 | 218 | 5.2 | 7.8 | 0.00 | 0.00 | 0.00 | 38 | 1015.7 |
| 20260503175559 | 76 | 200 | 2.6 | 3.5 | 0.00 | 0.00 | 0.00 | 40 | 1015.9 |
| 20260503175056 | 77 | 208 | 6.1 | 7.0 | 0.00 | 0.00 | 0.00 | 39 | 1016.0 |
| 20260503174553 | 76 | 226 | 2.6 | 3.5 | 0.00 | 0.00 | 0.00 | 40 | 1015.9 |
| 20260503174049 | 76 | 212 | 4.3 | 7.0 | 0.00 | 0.00 | 0.00 | 38 | 1016.1 |
| 20260503173545 | 76 | 211 | 3.5 | 5.2 | 0.00 | 0.00 | 0.00 | 39 | 1016.1 |
| 20260503173041 | 74 | 303 | 3.5 | 6.1 | 0.00 | 0.00 | 0.00 | 39 | 1016.2 |
| 20260503172539 | 75 | 223 | 11.3 | 13.9 | 0.00 | 0.00 | 0.00 | 39 | 1016.3 |
| 20260503172036 | 74 | 239 | 3.5 | 3.5 | 0.00 | 0.00 | 0.00 | 42 | 1016.5 |
| 20260503171532 | 74 | 235 | 6.1 | 7.8 | 0.00 | 0.00 | 0.00 | 42 | 1016.4 |
| 20260503171030 | 74 | 221 | 5.2 | 8.7 | 0.00 | 0.00 | 0.00 | 40 | 1016.6 |
| 20260503170526 | 74 | 237 | 3.5 | 6.1 | 0.00 | 0.00 | 0.00 | 41 | 1016.7 |
| 20260503150918 | 67 | 174 | 3.5 | 5.2 | 0.00 | 0.00 | 0.00 | 46 | 1017.5 |
| 20260503150415 | 67 | 103 | 4.3 | 6.1 | 0.00 | 0.00 | 0.00 | 46 | 1017.6 |
| 20260503131308 | 57 | 178 | 3.5 | 3.5 | 0.00 | 0.00 | 0.00 | 51 | 1018.4 |
| 20260503130805 | 57 | 210 | 1.7 | 2.6 | 0.00 | 0.00 | 0.00 | 52 | 1018.5 |
| 20260503130302 | 56 | 175 | 5.2 | 7.8 | 0.00 | 0.00 | 0.00 | 52 | 1018.5 |
| 20260503110656 | 47 | 50 | 1.7 | 1.7 | 0.00 | 0.00 | 0.00 | 65 | 1018.4 |
| 20260503110153 | 47 | 203 | 1.7 | 2.6 | 0.00 | 0.00 | 0.00 | 64 | 1018.3 |
| 20260503100120 | 48 | 186 | 2.6 | 3.5 | 0.00 | 0.00 | 0.00 | 64 | 1018.5 |
| 20260503081509 | 48 | 69 | 1.7 | 1.7 | 0.00 | 0.00 | 0.00 | 62 | 1019.2 |
| 20260503081007 | 48 | 50 | 0.9 | 0.9 | 0.00 | 0.00 | 0.00 | 62 | 1019.2 |
| 20260503080503 | 48 | 61 | 1.7 | 2.6 | 0.00 | 0.00 | 0.00 | 64 | 1019.3 |
| 20260503072939 | 48 | 51 | 0.9 | 0.9 | 0.00 | 0.00 | 0.00 | 65 | 1019.4 |
| 20260503072437 | 47 | 66 | 2.6 | 2.6 | 0.00 | 0.00 | 0.00 | 66 | 1019.4 |
| 20260503071934 | 46 | 49 | 0.9 | 0.9 | 0.00 | 0.00 | 0.00 | 69 | 1019.4 |
| 20260503071430 | 46 | 53 | 0.9 | 0.9 | 0.00 | 0.00 | 0.00 | 70 | 1019.5 |
| 20260503070926 | 46 | 47 | 0.9 | 0.9 | 0.00 | 0.00 | 0.00 | 71 | 1019.6 |
| 20260503070424 | 46 | 69 | 0.9 | 0.9 | 0.00 | 0.00 | 0.00 | 73 | 1019.5 |
| 20260503054837 | 46 | 50 | 0.0 | 0.0 | 0.00 | 0.00 | 0.00 | 80 | 1020.0 |
| 20260503054333 | 46 | 50 | 0.0 | 0.0 | 0.00 | 0.00 | 0.00 | 80 | 1020.2 |
| 20260503053831 | 46 | 50 | 0.0 | 0.0 | 0.00 | 0.00 | 0.00 | 79 | 1020.2 |
| 20260503053329 | 46 | 50 | 0.0 | 0.0 | 0.00 | 0.00 | 0.00 | 78 | 1020.2 |
| 20260503052826 | 47 | 50 | 0.0 | 0.0 | 0.00 | 0.00 | 0.00 | 78 | 1020.1 |
| 20260503052322 | 46 | 39 | 0.0 | 0.0 | 0.00 | 0.00 | 0.00 | 79 | 1020.4 |
| 20260503051819 | 46 | 36 | 0.0 | 0.0 | 0.00 | 0.00 | 0.00 | 80 | 1020.4 |
| 20260503051315 | 47 | 34 | 0.0 | 0.0 | 0.00 | 0.00 | 0.00 | 80 | 1020.4 |
| 20260503050812 | 47 | 34 | 0.0 | 0.0 | 0.00 | 0.00 | 0.00 | 78 | 1020.4 |
| 20260503050308 | 48 | 34 | 0.0 | 0.0 | 0.00 | 0.00 | 0.00 | 77 | 1020.1 |
| 20260503045806 | 48 | 33 | 0.0 | 0.0 | 0.00 | 0.00 | 0.00 | 75 | 1020.4 |
| 20260503045305 | 48 | 34 | 0.0 | 0.0 | 0.00 | 0.00 | 0.00 | 75 | 1020.3 |
| 20260503044759 | 48 | 34 | 0.0 | 0.0 | 0.00 | 0.00 | 0.00 | 75 | 1020.5 |
| 20260503044257 | 48 | 33 | 0.0 | 0.0 | 0.00 | 0.00 | 0.00 | 75 | 1020.5 |
| 20260503043754 | 48 | 33 | 0.0 | 0.0 | 0.00 | 0.00 | 0.00 | 75 | 1020.3 |
| 20260503043251 | 48 | 33 | 0.0 | 0.0 | 0.00 | 0.00 | 0.00 | 74 | 1020.4 |
| 20260503042746 | 47 | 30 | 0.0 | 0.0 | 0.00 | 0.00 | 0.00 | 77 | 1020.3 |
| 20260503042244 | 47 | 30 | 0.0 | 0.0 | 0.00 | 0.00 | 0.00 | 78 | 1020.3 |
| 20260503041739 | 47 | 22 | 0.0 | 0.0 | 0.00 | 0.00 | 0.00 | 77 | 1020.2 |
| 20260503041237 | 47 | 23 | 0.0 | 0.0 | 0.00 | 0.00 | 0.00 | 78 | 1020.3 |
| 20260503040735 | 48 | 21 | 0.0 | 0.0 | 0.00 | 0.00 | 0.00 | 77 | 1020.3 |
| 20260503040232 | 48 | 21 | 0.0 | 0.0 | 0.00 | 0.00 | 0.00 | 75 | 1020.3 |
| 20260503035729 | 48 | 21 | 0.0 | 0.0 | 0.00 | 0.00 | 0.00 | 74 | 1020.2 |
| 20260503035227 | 48 | 22 | 0.0 | 0.0 | 0.00 | 0.00 | 0.00 | 74 | 1020.4 |
| 20260503034724 | 48 | 22 | 0.0 | 0.0 | 0.00 | 0.00 | 0.00 | 74 | 1020.3 |
| 20260503034220 | 48 | 23 | 0.0 | 0.0 | 0.00 | 0.00 | 0.00 | 74 | 1020.4 |
| 20260503033718 | 48 | 349 | 0.0 | 0.0 | 0.00 | 0.00 | 0.00 | 73 | 1020.7 |
| 20260503033210 | 48 | 359 | 0.0 | 0.0 | 0.00 | 0.00 | 0.00 | 73 | 1020.6 |
| 20260503032708 | 49 | 359 | 0.0 | 0.0 | 0.00 | 0.00 | 0.00 | 72 | 1020.3 |
| 20260503032207 | 49 | 359 | 0.0 | 0.0 | 0.00 | 0.00 | 0.00 | 72 | 1020.3 |
| 20260503031703 | 49 | 357 | 0.0 | 0.0 | 0.00 | 0.00 | 0.00 | 70 | 1020.3 |
| 20260503031202 | 49 | 359 | 0.0 | 0.0 | 0.00 | 0.00 | 0.00 | 69 | 1020.3 |
| 20260503030657 | 49 | 356 | 0.0 | 0.0 | 0.00 | 0.00 | 0.00 | 68 | 1020.4 |
| 20260503030154 | 49 | 359 | 0.0 | 0.0 | 0.00 | 0.00 | 0.00 | 71 | 1020.4 |
| 20260503025651 | 49 | 359 | 0.0 | 0.0 | 0.00 | 0.00 | 0.00 | 70 | 1020.2 |
| 20260503025149 | 49 | 356 | 0.0 | 0.0 | 0.00 | 0.00 | 0.00 | 67 | 1020.3 |
| 20260503024645 | 50 | 356 | 0.0 | 0.0 | 0.00 | 0.00 | 0.00 | 65 | 1020.3 |
| 20260503024142 | 50 | 357 | 0.0 | 0.0 | 0.00 | 0.00 | 0.00 | 65 | 1020.3 |
| 20260503023639 | 50 | 355 | 0.0 | 0.0 | 0.00 | 0.00 | 0.00 | 64 | 1020.4 |
| 20260503023136 | 51 | 356 | 0.0 | 0.0 | 0.00 | 0.00 | 0.00 | 65 | 1020.3 |
| 20260503022632 | 51 | 356 | 0.0 | 0.0 | 0.00 | 0.00 | 0.00 | 64 | 1020.1 |
| 20260503022131 | 51 | 359 | 0.0 | 0.0 | 0.00 | 0.00 | 0.00 | 64 | 1020.0 |
| 20260503021629 | 51 | 356 | 0.0 | 0.0 | 0.00 | 0.00 | 0.00 | 63 | 1020.2 |
| 20260503021125 | 51 | 358 | 0.0 | 0.0 | 0.00 | 0.00 | 0.00 | 62 | 1020.1 |
| 20260503020622 | 52 | 352 | 0.0 | 0.0 | 0.00 | 0.00 | 0.00 | 59 | 1020.0 |
| 20260503020120 | 52 | 345 | 0.0 | 0.0 | 0.00 | 0.00 | 0.00 | 60 | 1020.0 |
| 20260503015616 | 52 | 0 | 0.0 | 0.0 | 0.00 | 0.00 | 0.00 | 59 | 1019.9 |
| 20260503015113 | 52 | 14 | 0.0 | 0.0 | 0.00 | 0.00 | 0.00 | 61 | 1020.0 |
| 20260503014609 | 53 | 14 | 0.0 | 0.0 | 0.00 | 0.00 | 0.00 | 60 | 1019.9 |
| 20260503014107 | 53 | 354 | 0.0 | 0.0 | 0.00 | 0.00 | 0.00 | 58 | 1019.7 |